Regional Weather Roundup
Issued by NWS

Home | Current Version | Previous Version | Graphics & Text | Print | Product List | Glossary On
Versions: 1 2 3 4 5 6 7 8 9 10 11 12 13 14 15 16 17 18 19 20 21 22 23 24 25 26 27 28 29 30 31 32 33 34 35 36 37 38 39 40 41 42 43 44 45 46 47 48 49 50
000
ASUS43 KLSX 201807
RWRMO

WEATHER SUMMARY FOR MISSOURI
NATIONAL WEATHER SERVICE SPRINGFIELD MO
100 PM CDT SUN MAY 20 2018

NOTE: "FAIR" INDICATES FEW OR NO CLOUDS BELOW 12,000 FEET WITH NO
       SIGNIFICANT WEATHER AND/OR OBSTRUCTIONS TO VISIBILITY.
       CURRENT SKY AND/OR WEATHER CONDITIONS ARE NOT AVAILABLE FOR
       CHILLICOTHE AND FARMINGTON.

MOZ001>031-035>038-043-044-053-054-201900-
...NORTHERN AND WESTERN MISSOURI...

CITY           SKY/WX    TMP DP  RH WIND       PRES   REMARKS
KANSAS CTY INT LGT RAIN  68  64  87 CALM      30.07R
6HR MIN TEMP:  64; 6HR MAX TEMP:  70; 6HR PCP:  0.20;

KANSAS C DTWN  LGT RAIN  70  63  78 SW6       30.05R
6HR MIN TEMP:  66; 6HR MAX TEMP:  70; 6HR PCP:  0.61;

LEE`S SUMMIT   CLOUDY    70  66  87 NE6       30.05F
6HR MIN TEMP:  64; 6HR MAX TEMP:  70; 6HR PCP:  0.49;

ST JOSEPH      LGT RAIN  70  65  84 W3        30.04F
6HR MIN TEMP:  62; 6HR MAX TEMP:  70; 6HR PCP:  0.12;

CHILLICOTHE      N/A     72  64  76 VRB3      30.07S
6HR MIN TEMP:  64; 6HR MAX TEMP:  73;

KIRKSVILLE     CLOUDY    71  63  75 SW10      30.09F
6HR MIN TEMP:  64; 6HR MAX TEMP:  73; 6HR PCP: TRACE;


$$
MOZ066>068-077>081-088>096-101>105-201900-
...SOUTHWEST MISSOURI...

CITY           SKY/WX    TMP DP  RH WIND       PRES   REMARKS
SPRINGFIELD    CLOUDY    77  63  61 E7        30.06F
6HR MIN TEMP:  63; 6HR MAX TEMP:  77; 6HR PCP:  0.33;

JOPLIN         CLOUDY    77  67  71 SE7       30.06R
6HR MIN TEMP:  63; 6HR MAX TEMP:  77; 6HR PCP:  0.11;

BRANSON        PTSUNNY   75  64  69 E9        30.10F

$$
MOZ032>034-039>042-045>050-055>058-069>072-201900-
...CENTRAL MISSOURI...

CITY           SKY/WX    TMP DP  RH WIND       PRES   REMARKS
COLUMBIA       CLOUDY    74  65  73 SE9       30.08R
6HR MIN TEMP:  64; 6HR MAX TEMP:  74; 6HR PCP:  0.34;

JEFFERSON CITY PTSUNNY   72  65  78 E10       30.08S
6HR MIN TEMP:  65; 6HR MAX TEMP:  72; 6HR PCP:  0.41;

ROLLA          MOSUNNY   72  65  78 E8        30.11F
6HR MIN TEMP:  63; 6HR MAX TEMP:  72; 6HR PCP:  0.32;

SEDALIA        CLOUDY    75  65  70 SE6       30.07S
6HR MIN TEMP:  65; 6HR MAX TEMP:  75; 6HR PCP:  0.42;

WHITEMAN AFB   CLOUDY    74  65  74 E7        30.00F
WARRENSBURG    CLOUDY    72  63  73 CALM      30.06F

$$
MOZ051-052-059>065-201900-
...EAST CENTRAL MISSOURI...

CITY           SKY/WX    TMP DP  RH WIND       PRES   REMARKS
ST LOUIS INTL  CLOUDY    73  66  78 N9        30.12F
6HR MIN TEMP:  64; 6HR MAX TEMP:  74; 6HR PCP:  0.01;

SPIRIT OF STL  PTSUNNY   72  66  81 NE8       30.10F
6HR MIN TEMP:  65; 6HR MAX TEMP:  73; 6HR PCP:  0.14;

ST CHARLES     CLOUDY    72  66  81 N7        30.11F
6HR MIN TEMP:  65; 6HR MAX TEMP:  74;


$$
MOZ072>076-082>087-097>100-106>115-201900-
...SOUTH CENTRAL AND SOUTHEAST MISSOURI...

CITY           SKY/WX    TMP DP  RH WIND       PRES   REMARKS
CAPE GIRARDEAU FAIR      82  70  66 VRB3      30.08F
6HR MIN TEMP:  68; 6HR MAX TEMP:  83;

FARMINGTON     MOSUNNY   78  67  68 VRB5      30.13F
6HR MIN TEMP:  66; 6HR MAX TEMP:  78; 6HR PCP:  0.01;

POPLAR BLUFF   CLOUDY    76  68  76 N15       30.10S
6HR MIN TEMP:  71; 6HR MAX TEMP:  82;

WEST PLAINS    MOSUNNY   79  67  66 NE9G18    30.12F
6HR MIN TEMP:  67; 6HR MAX TEMP:  79;


$$




USA.gov is the U.S. government's official web portal to all federal, state and local government web resources and services.